Kenai, AK

6:09 AM AKDT on September 19, 2017 (GMT -0800)
Kenai Municipal

Weather History for PAEN - March, 2012

Change the Weather History Date:

Sunday, March 25, 2012

  Actual Average Record
Temperature  
Mean Temperature 16 °F -  
Max Temperature 34 °F 35 °F 46 °F (1981)
Min Temperature 1 °F 18 °F -21 °F (1962)
Degree Days  
Heating Degree Days 50    
Moisture  
Dew Point 8 °F    
Average Humidity 82    
Maximum Humidity 100    
Minimum Humidity 47    
Precipitation  
Precipitation 0.00 in - - ()
Sea Level Pressure  
Sea Level Pressure 29.84 in    
Wind  
Wind Speed 2 mph (NNE)    
Max Wind Speed 10 mph    
Max Gust Speed -    
Visibility 6 miles    
Events Fog    
Averages and records for this station are not official NWS values.
T = Trace of Precipitation, MM = Missing Value Source: NWS Daily Summary

Daily Weather History Graph

Daily Weather History Graph

Search for Another Location

Airport or City:

Trip Planner

Search our weather history database for the weather conditions in past years. The results will help you decide how hot, cold, wet, or windy it might be!

Date:

Astronomy

Mar. 25, 2012 Rise Set
Actual Time 7:48 AM AKDT 8:34 PM AKDT
Civil Twilight 7:05 AM AKDT 9:17 PM AKDT
Nautical Twilight 6:13 AM AKDT 10:09 PM AKDT
Astronomical Twilight 5:14 AM AKDT 11:09 PM AKDT
Moon 8:05 AM AKDT (3/25) No Moon Set
Length of Visible Light 14h 11m
Length of Day
12h 45m
Waxing Crescent, 9% of the Moon is Illuminated
Mar 25
Waxing Crescent
Mar 30
First Quarter
Apr 6
Full
Apr 13
Last Quarter
Apr 20
New

Hourly Weather History & Observations

Time (AKDT) Temp. Windchill Dew Point Humidity Pressure Visibility Wind Dir Wind Speed Gust Speed Precip Events Conditions
12:53 AM 10.9 °F - 10.9 °F 100% 29.89 in 10.0 mi Calm Calm - N/A   Clear
1:21 AM 12.2 °F 6.1 °F 12.2 °F 100% 29.88 in 2.5 mi North 3.5 mph - N/A   Clear
1:28 AM 12.2 °F 6.1 °F 12.2 °F 100% 29.89 in 6.0 mi NNW 3.5 mph - N/A   Partly Cloudy
1:53 AM 12.0 °F - 10.9 °F 95% 29.90 in 10.0 mi Calm Calm - N/A   Mostly Cloudy
2:40 AM 10.4 °F 4.0 °F 10.4 °F 100% 29.87 in 1.8 mi NNE 3.5 mph - N/A   Clear
2:53 AM 10.0 °F - 10.0 °F 100% 29.89 in 1.2 mi Calm Calm - N/A   Clear
3:06 AM 8.6 °F - 6.8 °F 92% 29.88 in 3.0 mi Calm Calm - N/A   Clear
3:39 AM 8.6 °F - 8.6 °F 100% 29.87 in 1.8 mi Calm Calm - N/A   Clear
3:53 AM 10.0 °F - 8.1 °F 92% 29.88 in 1.0 mi Calm Calm - N/A   Clear
4:12 AM 6.8 °F - 6.8 °F 100% 29.87 in 0.5 mi Calm Calm - N/A Fog Light Freezing Fog
4:25 AM 3.2 °F -4.2 °F 3.2 °F 100% 29.87 in 0.5 mi NE 3.5 mph - N/A Fog Light Freezing Fog
4:53 AM 3.9 °F - 3.0 °F 96% 29.88 in 0.8 mi Calm Calm - N/A   Mist
5:22 AM 5.0 °F - 3.2 °F 92% 29.86 in 0.8 mi Calm Calm - N/A   Scattered Clouds
5:33 AM 3.2 °F -4.2 °F 1.4 °F 92% 29.86 in 1.8 mi NE 3.5 mph - N/A   Mostly Cloudy
5:40 AM 5.0 °F - 3.2 °F 92% 29.86 in 2.0 mi Calm Calm - N/A   Overcast
5:53 AM 6.1 °F -0.9 °F 3.9 °F 91% 29.87 in 2.5 mi NE 3.5 mph - N/A   Overcast
6:01 AM 6.8 °F - 3.2 °F 85% 29.86 in 7.0 mi Calm Calm - N/A   Overcast
6:31 AM 5.0 °F - 3.2 °F 92% 29.87 in 1.8 mi Calm Calm - N/A   Scattered Clouds
6:41 AM 5.0 °F - 1.4 °F 85% 29.87 in 3.0 mi Calm Calm - N/A   Mostly Cloudy
6:53 AM 3.9 °F - 1.9 °F 91% 29.88 in 9.0 mi Calm Calm - N/A   Mostly Cloudy
7:53 AM 1.0 °F -6.7 °F -2.0 °F 87% 29.87 in 10.0 mi ENE 3.5 mph - N/A   Clear
8:53 AM 1.9 °F - -0.0 °F 91% 29.87 in 10.0 mi Calm Calm - N/A   Partly Cloudy
9:08 AM 3.2 °F - 3.2 °F 100% 29.86 in 1.8 mi Calm Calm - N/A   Partly Cloudy
9:15 AM 5.0 °F - 3.2 °F 92% 29.86 in 10.0 mi Calm Calm - N/A   Partly Cloudy
9:53 AM 6.1 °F - 5.0 °F 95% 29.87 in 10.0 mi Calm Calm - N/A   Partly Cloudy
10:53 AM 19.9 °F - 17.1 °F 89% 29.86 in 10.0 mi Calm Calm - N/A   Clear
11:53 AM 24.1 °F - 18.0 °F 77% 29.85 in 10.0 mi Calm Calm - N/A   Clear
12:53 PM 28.0 °F - 19.0 °F 69% 29.84 in 10.0 mi Calm Calm - N/A   Clear
1:53 PM 30.0 °F - 12.0 °F 47% 29.83 in 10.0 mi Calm Calm - N/A   Clear
2:53 PM 30.0 °F 24.1 °F 15.1 °F 54% 29.82 in 10.0 mi North 5.8 mph - N/A   Clear
3:53 PM 30.9 °F 22.8 °F 12.9 °F 47% 29.81 in 10.0 mi North 9.2 mph - N/A   Clear
4:53 PM 30.0 °F 21.7 °F 12.9 °F 49% 29.80 in 10.0 mi North 9.2 mph - N/A   Clear
5:53 PM 28.9 °F 19.8 °F 10.9 °F 47% 29.78 in 10.0 mi North 10.4 mph - N/A   Clear
6:53 PM 26.1 °F 16.2 °F 10.0 °F 51% 29.76 in 10.0 mi NNE 10.4 mph - N/A   Clear
7:53 PM 23.0 °F 13.9 °F 9.0 °F 55% 29.75 in 10.0 mi North 8.1 mph - N/A   Clear
8:53 PM 21.0 °F 13.4 °F 7.0 °F 55% 29.74 in 10.0 mi NNW 5.8 mph - N/A   Clear
9:53 PM 18.0 °F 8.7 °F 8.1 °F 65% 29.73 in 10.0 mi North 6.9 mph - N/A   Clear
10:53 PM 15.1 °F 9.4 °F 7.0 °F 70% 29.72 in 10.0 mi North 3.5 mph - N/A   Clear
11:53 PM 10.9 °F - 6.1 °F 81% 29.71 in 10.0 mi Calm Calm - N/A   Clear